Location: Meanaryar
(48.4161°N, 4.7315°W)
Time: 16:56:18
(UTC+00:00)

Cosmos 1025 Rocket - Pass Details

Date: 18 September 2020
Orbit: 595 x 617 km, 82.5° (Epoch: 29 October)

Event Time Altitude Azimuth Distance (km) Brightness Sun altitude
Rises 20:22:45 0° 345° (NNW) 2,886 7.1 -19.7°
Reaches altitude 10° 20:25:02 10° 340° (NNW) 1,980 6.3 -20.1°
Maximum altitude 20:29:15 47° 266° (W) 817 4.0 -20.7°
Enters shadow 20:33:04 12° 195° (SSW) 1,835 5.3 -21.3°
